Humidity-temperature Sensor

Selected Measurement Type: Relative Humidity

 
Relative Humidity [%]     6 entries per hour
Showing data from 2/13/2023 (00:00:00 Z) to 2/6/2023 (00:01:00 Z)
Previous Next [ Day | 3-Days | 7-Days ]
First Last
Prev [ Day | 3-Days | 7-Days ] Next
First Last

Start Time:     :
End Time:     :     
Time (in GMT) :00 :50 :40 :30 :20 :10
Previous Next [ Day | 3-Days | 7-Days ]
First Last
Prev [ Day | 3-Days | 7-Days ] Next
First Last


123 => good data
MM => data is determined as missing
-- => data not received/configured
Back to Top Back to Top
2/13/2023 00:00 to 23:10 87.98 88.00 87.98 87.53 87.18 87.45
2/12/2023 23:00 to 22:10 87.24 87.70 87.24 87.10 86.96 87.31
2/12/2023 22:00 to 21:10 87.24 86.98 86.92 86.71 86.96 86.79
2/12/2023 21:00 to 20:10 86.57 86.85 86.83 87.08 87.06 86.87
2/12/2023 20:00 to 19:10 86.90 86.79 86.42 86.42 86.57 86.32
2/12/2023 19:00 to 18:10 86.59 86.92 86.05 85.79 85.46 85.21
2/12/2023 18:00 to 17:10 84.47 83.65 83.18 83.85 83.18 82.37
2/12/2023 17:00 to 16:10 82.29 82.56 82.25 82.91 83.01 83.85
2/12/2023 16:00 to 15:10 83.32 84.22 84.86 83.89 83.01 83.42
2/12/2023 15:00 to 14:10 83.13 83.11 83.77 83.81 83.53 83.79
2/12/2023 14:00 to 13:10 85.11 85.56 85.09 84.88 85.19 86.61
2/12/2023 13:00 to 12:10 87.31 87.84 87.78 88.00 88.42 88.46
2/12/2023 12:00 to 11:10 88.56 88.50 88.64 88.72 88.91 89.11
2/12/2023 11:00 to 10:10 89.24 88.68 88.56 89.32 89.63 89.59
2/12/2023 10:00 to 9:10 89.79 89.85 90.10 89.96 90.12 90.12
2/12/2023 09:00 to 8:10 90.08 90.00 89.96 90.33 90.80 90.63
2/12/2023 08:00 to 7:10 90.47 90.33 90.20 90.59 90.53 90.80
2/12/2023 07:00 to 6:10 90.74 90.84 90.94 90.76 90.35 90.16
2/12/2023 06:00 to 5:10 90.43 90.14 89.83 89.81 89.57 89.65
2/12/2023 05:00 to 4:10 89.48 89.34 89.28 89.63 89.85 90.02
2/12/2023 04:00 to 3:10 90.10 90.08 89.94 90.10 90.06 90.22
2/12/2023 03:00 to 2:10 90.49 90.35 90.20 90.02 89.69 89.40
2/12/2023 02:00 to 1:10 89.69 89.94 89.63 89.67 89.83 90.16
2/12/2023 01:00 to 0:10 90.49 90.45 90.66 90.63 90.51 90.43
2/12/2023 00:00 to 23:10 90.27 89.92 89.75 89.90 90.02 90.22
2/11/2023 23:00 to 22:10 90.43 90.49 90.74 90.90 91.17 91.05
2/11/2023 22:00 to 21:10 91.03 90.86 90.63 90.43 90.20 89.98
2/11/2023 21:00 to 20:10 90.18 90.49 90.14 89.75 89.48 89.63
2/11/2023 20:00 to 19:10 90.04 89.81 89.71 89.48 90.27 90.10
2/11/2023 19:00 to 18:10 89.53 89.81 91.15 91.33 91.68 91.64
2/11/2023 18:00 to 17:10 91.52 91.23 90.74 90.39 90.22 90.24
2/11/2023 17:00 to 16:10 89.98 89.59 89.48 89.28 89.18 89.07
2/11/2023 16:00 to 15:10 88.91 88.68 88.56 88.50 87.84 87.84
2/11/2023 15:00 to 14:10 87.63 88.31 88.09 87.88 87.70 88.52
2/11/2023 14:00 to 13:10 89.36 89.61 89.92 89.53 89.03 88.17
2/11/2023 13:00 to 12:10 88.00 88.19 88.15 88.70 88.35 88.07
2/11/2023 12:00 to 11:10 88.46 89.26 89.09 89.13 89.11 88.81
2/11/2023 11:00 to 10:10 88.33 88.60 88.66 88.91 89.16 89.34
2/11/2023 10:00 to 9:10 89.34 89.63 89.24 89.03 89.55 89.67
2/11/2023 09:00 to 8:10 89.42 89.13 88.85 88.48 88.40 88.62
2/11/2023 08:00 to 7:10 88.93 88.91 88.46 88.56 88.74 88.81
2/11/2023 07:00 to 6:10 88.44 87.96 87.98 87.98 87.76 87.59
2/11/2023 06:00 to 5:10 87.76 88.07 87.88 87.80 87.74 87.37
2/11/2023 05:00 to 4:10 87.29 86.90 86.77 86.53 86.77 86.87
2/11/2023 04:00 to 3:10 87.29 87.16 87.70 87.61 87.80 87.76
2/11/2023 03:00 to 2:10 87.24 86.90 86.67 86.71 86.63 86.63
2/11/2023 02:00 to 1:10 86.61 86.81 86.87 87.16 86.83 86.67
2/11/2023 01:00 to 0:10 86.61 86.61 86.11 86.59 86.94 86.96
2/11/2023 00:00 to 23:10 86.98 86.75 87.02 87.43 87.39 87.08
2/10/2023 23:00 to 22:10 86.73 87.31 87.12 87.61 88.11 87.68
2/10/2023 22:00 to 21:10 87.10 86.42 86.57 87.45 88.13 88.35
2/10/2023 21:00 to 20:10 87.80 87.00 86.22 85.46 85.72 86.38
2/10/2023 20:00 to 19:10 86.77 86.67 86.79 87.39 87.72 87.43
2/10/2023 19:00 to 18:10 87.41 87.22 87.06 86.87 86.81 87.12
2/10/2023 18:00 to 17:10 87.41 87.57 87.84 87.92 87.33 87.16
2/10/2023 17:00 to 16:10 87.39 86.83 87.47 87.98 88.74 88.68
2/10/2023 16:00 to 15:10 88.74 88.23 88.03 87.98 88.27 88.54
2/10/2023 15:00 to 14:10 88.33 88.25 89.03 89.48 89.67 89.59
2/10/2023 14:00 to 13:10 89.59 89.55 89.63 89.96 90.08 90.39
2/10/2023 13:00 to 12:10 90.68 90.92 90.92 90.98 91.00 91.25
2/10/2023 12:00 to 11:10 91.42 91.72 92.03 91.79 91.95 91.77
2/10/2023 11:00 to 10:10 91.62 91.56 91.66 91.87 91.79 92.18
2/10/2023 10:00 to 9:10 92.07 92.05 91.87 91.74 91.72 91.87
2/10/2023 09:00 to 8:10 92.14 92.28 92.18 91.99 91.56 91.48
2/10/2023 08:00 to 7:10 91.72 91.50 91.31 91.03 91.03 91.15
2/10/2023 07:00 to 6:10 91.13 91.29 91.11 91.35 91.83 91.60
2/10/2023 06:00 to 5:10 91.58 91.64 91.33 90.88 90.63 90.63
2/10/2023 05:00 to 4:10 90.90 90.84 90.61 90.43 90.06 89.85
2/10/2023 04:00 to 3:10 90.02 89.57 89.44 89.42 89.38 89.40
2/10/2023 03:00 to 2:10 89.18 89.09 88.66 88.52 89.03 89.22
2/10/2023 02:00 to 1:10 89.13 88.85 88.77 88.89 89.18 89.26
2/10/2023 01:00 to 0:10 89.40 89.18 89.50 89.57 89.32 89.36
2/10/2023 00:00 to 23:10 89.55 89.48 89.69 89.81 89.34 89.26
2/9/2023 23:00 to 22:10 89.20 89.40 89.55 89.59 89.61 89.67
2/9/2023 22:00 to 21:10 89.69 89.61 89.34 89.26 88.93 88.74
2/9/2023 21:00 to 20:10 88.46 88.42 88.68 89.16 89.09 89.36
2/9/2023 20:00 to 19:10 89.61 89.40 89.36 89.63 89.94 89.75
2/9/2023 19:00 to 18:10 89.57 89.65 89.98 90.20 90.43 90.61
2/9/2023 18:00 to 17:10 90.33 90.08 89.85 89.48 88.89 88.52
2/9/2023 17:00 to 16:10 88.93 88.81 89.28 89.57 89.63 89.57
2/9/2023 16:00 to 15:10 89.34 89.85 90.06 89.75 89.50 89.59
2/9/2023 15:00 to 14:10 89.87 90.10 90.04 89.77 89.85 90.00
2/9/2023 14:00 to 13:10 89.77 89.71 89.38 89.61 90.14 90.59
2/9/2023 13:00 to 12:10 90.94 90.92 91.00 91.25 91.42 91.46
2/9/2023 12:00 to 11:10 91.35 91.44 91.00 91.42 91.56 91.62
2/9/2023 11:00 to 10:10 91.87 92.01 92.03 91.87 92.05 92.07
2/9/2023 10:00 to 9:10 92.22 92.22 92.32 92.38 92.36 92.44
2/9/2023 09:00 to 8:10 92.42 92.34 92.18 91.83 91.95 91.91
2/9/2023 08:00 to 7:10 91.68 91.48 91.70 91.60 91.44 91.50
2/9/2023 07:00 to 6:10 91.35 91.27 91.35 91.56 91.62 91.25
2/9/2023 06:00 to 5:10 90.96 90.57 90.59 90.12 89.61 88.95
2/9/2023 05:00 to 4:10 87.76 86.85 86.53 86.48 87.49 88.70
2/9/2023 04:00 to 3:10 90.22 90.80 91.21 91.15 90.90 90.86
2/9/2023 03:00 to 2:10 91.21 91.19 91.46 91.62 91.66 91.54
2/9/2023 02:00 to 1:10 91.29 91.31 90.82 90.16 89.96 90.06
2/9/2023 01:00 to 0:10 90.22 89.94 90.08 90.22 90.22 90.00
2/9/2023 00:00 to 23:10 90.37 90.35 90.33 90.45 90.27 90.18
2/8/2023 23:00 to 22:10 90.47 90.31 90.37 89.96 89.36 89.42
2/8/2023 22:00 to 21:10 89.46 89.38 89.18 89.16 89.44 89.81
2/8/2023 21:00 to 20:10 89.83 89.77 89.83 89.57 89.48 89.73
2/8/2023 20:00 to 19:10 89.94 90.10 90.20 90.57 90.51 90.39
2/8/2023 19:00 to 18:10 90.20 89.48 89.26 89.55 89.96 90.08
2/8/2023 18:00 to 17:10 89.73 89.90 89.63 89.77 89.77 89.98
2/8/2023 17:00 to 16:10 90.06 89.87 90.04 90.22 90.51 90.57
2/8/2023 16:00 to 15:10 90.70 90.76 90.53 90.37 90.06 90.16
2/8/2023 15:00 to 14:10 89.94 89.98 90.08 90.18 90.31 90.43
2/8/2023 14:00 to 13:10 90.39 90.72 90.66 90.98 91.05 91.07
2/8/2023 13:00 to 12:10 91.00 91.11 91.37 91.37 91.17 91.29
2/8/2023 12:00 to 11:10 91.37 91.27 91.15 91.21 91.09 91.17
2/8/2023 11:00 to 10:10 91.07 91.23 91.44 91.70 91.64 91.42
2/8/2023 10:00 to 9:10 91.42 91.11 91.03 91.05 91.23 91.29
2/8/2023 09:00 to 8:10 91.42 91.19 91.17 91.00 91.07 90.94
2/8/2023 08:00 to 7:10 91.07 90.98 90.70 91.05 91.40 91.52
2/8/2023 07:00 to 6:10 91.97 92.26 91.99 92.05 91.97 91.89
2/8/2023 06:00 to 5:10 91.77 91.83 92.09 92.14 92.40 92.44
2/8/2023 05:00 to 4:10 92.32 92.63 92.83 92.79 92.69 92.50
2/8/2023 04:00 to 3:10 92.48 92.22 92.20 92.09 92.09 91.95
2/8/2023 03:00 to 2:10 92.24 92.30 92.14 92.22 92.07 92.03
2/8/2023 02:00 to 1:10 92.22 91.99 91.40 91.33 91.40 91.40
2/8/2023 01:00 to 0:10 91.21 90.63 90.06 89.13 88.27 87.76
2/8/2023 00:00 to 23:10 87.61 87.39 87.26 87.10 87.47 88.42
2/7/2023 23:00 to 22:10 88.83 88.52 88.25 88.25 88.60 88.93
2/7/2023 22:00 to 21:10 89.63 89.53 89.40 89.16 89.34 89.40
2/7/2023 21:00 to 20:10 89.94 90.35 90.80 90.90 90.92 90.72
2/7/2023 20:00 to 19:10 90.47 90.12 90.29 90.51 90.51 90.59
2/7/2023 19:00 to 18:10 90.72 90.61 90.27 89.98 90.27 90.45
2/7/2023 18:00 to 17:10 90.45 90.29 90.31 90.24 90.24 90.02
2/7/2023 17:00 to 16:10 90.22 90.31 89.90 89.44 89.22 89.18
2/7/2023 16:00 to 15:10 89.16 89.61 89.71 89.65 89.63 90.04
2/7/2023 15:00 to 14:10 90.24 89.71 89.36 89.20 89.05 89.11
2/7/2023 14:00 to 13:10 88.66 88.48 88.40 87.92 87.66 88.13
2/7/2023 13:00 to 12:10 88.23 88.54 88.77 88.74 89.05 89.44
2/7/2023 12:00 to 11:10 89.87 90.24 90.37 89.83 89.44 89.03
2/7/2023 11:00 to 10:10 88.60 88.58 88.44 88.31 89.11 89.34
2/7/2023 10:00 to 9:10 89.01 89.07 89.36 89.28 89.09 89.32
2/7/2023 09:00 to 8:10 89.46 89.65 89.77 89.81 89.94 90.16
2/7/2023 08:00 to 7:10 90.18 90.12 89.67 89.65 89.42 89.48
2/7/2023 07:00 to 6:10 89.55 89.92 90.31 90.41 90.35 90.27
2/7/2023 06:00 to 5:10 89.87 89.28 89.11 89.42 90.06 90.10
2/7/2023 05:00 to 4:10 90.20 90.45 90.33 90.63 90.82 90.53
2/7/2023 04:00 to 3:10 90.22 89.98 89.65 89.77 89.83 89.92
2/7/2023 03:00 to 2:10 89.46 89.48 89.50 88.99 89.30 89.38
2/7/2023 02:00 to 1:10 88.99 89.22 89.40 89.59 89.48 89.71
2/7/2023 01:00 to 0:10 89.65 89.46 89.53 89.07 88.99 89.07
2/7/2023 00:00 to 23:10 89.42 89.71 89.90 90.14 90.12 89.94
2/6/2023 23:00 to 22:10 90.24 90.18 89.85 89.92 90.00 89.59
2/6/2023 22:00 to 21:10 89.26 88.37 87.08 86.26 86.92 88.21
2/6/2023 21:00 to 20:10 89.65 90.39 91.11 91.23 91.31 91.66
2/6/2023 20:00 to 19:10 92.18 92.24 92.55 92.69 92.67 92.38
2/6/2023 19:00 to 18:10 92.32 92.14 92.09 92.28 92.22 92.30
2/6/2023 18:00 to 17:10 92.24 92.73 93.00 92.81 92.98 92.75
2/6/2023 17:00 to 16:10 92.65 92.75 92.81 92.73 92.90 93.04
2/6/2023 16:00 to 15:10 92.92 92.71 92.73 92.63 92.46 92.44
2/6/2023 15:00 to 14:10 92.77 92.71 92.57 92.55 92.81 92.83
2/6/2023 14:00 to 13:10 92.81 93.00 92.98 92.85 92.90 93.02
2/6/2023 13:00 to 12:10 93.14 92.85 92.79 92.81 92.50 92.63
2/6/2023 12:00 to 11:10 93.04 92.90 92.69 92.83 92.85 92.94
2/6/2023 11:00 to 10:10 92.85 92.36 92.48 92.57 92.46 92.90
2/6/2023 10:00 to 9:10 92.96 92.83 92.59 92.77 92.67 92.79
2/6/2023 09:00 to 8:10 92.44 92.38 92.48 92.36 92.53 93.02
2/6/2023 08:00 to 7:10 93.18 93.33 93.37 93.20 93.24 93.12
2/6/2023 07:00 to 6:10 93.27 93.18 93.29 93.37 93.43 93.31
2/6/2023 06:00 to 5:10 93.43 93.74 93.78 93.80 93.51 93.53
2/6/2023 05:00 to 4:10 93.55 93.51 93.18 92.85 93.20 93.00
2/6/2023 04:00 to 3:10 92.96 92.85 92.48 92.36 92.48 92.38
2/6/2023 03:00 to 2:10 92.32 92.20 92.11 91.70 91.95 92.09
2/6/2023 02:00 to 1:10 91.99 91.70 91.54 91.62 91.31 91.03
2/6/2023 01:00 to 0:10 90.94 91.33 91.33 91.29 91.31 91.23